Regional Weather Roundup
Issued by NWS

Home | Current Version | Previous Version | Graphics & Text | Print | Product List | Glossary On
Versions: 1 2 3 4 5 6 7 8 9 10 11 12 13 14 15 16 17 18 19 20 21 22 23 24 25 26 27 28 29 30 31 32 33 34 35 36 37 38 39 40 41 42 43 44 45 46 47 48 49 50
000
ASUS45 KSLC 280410
RWRUT

UTAH REGIONAL WEATHER ROUNDUP
NATIONAL WEATHER SERVICE SALT LAKE CITY UT
1000 PM MDT WED MAY 27 2015

UTZ001>011-023>025-280500-

NORTHERN UTAH

CITY           SKY/WX    TMP DP  RH WIND       PRES   REMARKS
BRIGHAM CITY   CLOUDY    57  49  76 NE3       30.08R
HILL AFB       NOT AVBL
LOGAN          CLOUDY    55  48  77 E3        30.07F
OGDEN          CLOUDY    54  47  77 S12       30.06F
PROVO AIRPORT  CLOUDY    61  45  55 S14       30.10R
SALT LAKE CITY CLOUDY    56  50  80 S8        30.09R
VERNAL         CLOUDY    54  48  80 CALM      30.14R
WENDOVER       PTCLDY    55  48  76 CALM      30.07R
HEBER CITY     RAIN      52  43  71 NW6       30.14R
WEST JORDAN    PTCLDY    54  52  94 CALM      30.11R

$$

UTZ012>022-026-027-280500-

SOUTHERN/CENTRAL UTAH

CITY           SKY/WX    TMP DP  RH WIND       PRES   REMARKS
BLANDING       PTCLDY    61  38  42 NW7       30.15S
BRYCE CANYON   PTCLDY    49  39  68 NW9       30.23R
CEDAR CITY     PTCLDY    53  44  71 CALM      30.14F
DELTA          CLOUDY    53  48  83 S15       30.13S
HANKSVILLE     MOCLDY    63  43  48 SE6       30.09R
MILFORD        CLOUDY    53  47  79 NW13G22   30.14R
MOAB/CYNLANDS  CLEAR     62  42  47 N16       30.08R
PRICE          CLOUDY    52  45  77 CALM      30.16S
ST GEORGE      CLOUDY    73  43  33 NE26G36   29.95R
KANAB          CLEAR     66  27  22 W7        30.07R

$$

REGIONAL REPORTS     COLORADO/ARIZONA

CITY           SKY/WX    TMP DP  RH WIND       PRES   REMARKS
CRAIG, CO      CLOUDY    51  44  77 SW5       30.17R
GRAND JUNCTION CLOUDY    57  46  66 S9        30.09R
RIFLE          LGT RAIN  54  45  71 NW15      30.19R
MONTROSE       PTCLDY    56  42  59 SE8       30.12S
CORTEZ         CLEAR     54  43  66 E7        30.10R
PAGE, AZ       CLEAR     75  32  20 NW3       29.98R
GRAND CANYON   PTCLDY    56  32  40 SW5       30.17R
KINGMAN        CLEAR     68  15  13 S9        29.98R
FLAGSTAFF      CLEAR     49  32  52 SW3       30.20R

$$

REGIONAL REPORTS    NEVADA/IDAHO/WYOMING

CITY           SKY/WX    TMP DP  RH WIND       PRES   REMARKS
LAS VEGAS, NV  PTCLDY    87  30  13 S9        29.80R
ELY            LGT RAIN  51  43  74 SE14      30.13R
ELKO           CLEAR     60  44  55 E5        30.03R
POCATELLO, ID  CLOUDY    55  47  74 NW12      30.09R
BURLEY         CLOUDY    53  45  74 S9        30.03F
EVANSTON, WY   CLOUDY    50  39  66 SW17G23   30.18R
ROCK SPRINGS   CLOUDY    50  44  80 SW10      30.14R
KEMMERER       CLOUDY    46  37  71 N3        30.17R

$$



USA.gov is the U.S. government's official web portal to all federal, state and local government web resources and services.